Erzincan, Turkey

3:34 PM +03 on February 27, 2017 (GMT +0300)
Erzincan

Weather History for LTCD - October, 2011

Change the Weather History Date:

Saturday, October 29, 2011

  Actual Average Record
Temperature  
Mean Temperature 44 °F -  
Max Temperature 57 °F 52 °F - ()
Min Temperature 30 °F 33 °F - ()
Degree Days  
Heating Degree Days 22    
Moisture  
Dew Point 28 °F    
Average Humidity 55    
Maximum Humidity 87    
Minimum Humidity 18    
Precipitation  
Precipitation 0.00 in 0.05 in - ()
Sea Level Pressure  
Sea Level Pressure 30.12 in    
Wind  
Wind Speed 3 mph ()    
Max Wind Speed 9 mph    
Max Gust Speed -    
Visibility 6.7 miles    
Events      
T = Trace of Precipitation, MM = Missing Value Source: Averaged Metar Reports

Daily Weather History Graph

Daily Weather History Graph

Search for Another Location

Airport or City:

Trip Planner

Search our weather history database for the weather conditions in past years. The results will help you decide how hot, cold, wet, or windy it might be!

Date:

Astronomy

Oct. 29, 2011 Rise Set
Actual Time 6:46 AM EEST 5:24 PM EEST
Civil Twilight 6:18 AM EEST 5:52 PM EEST
Nautical Twilight 5:47 AM EEST 6:23 PM EEST
Astronomical Twilight 5:15 AM EEST 6:55 PM EEST
Moon 9:45 AM EEST (10/29) 7:25 PM EEST (10/29)
Length of Visible Light 11h 33m
Length of Day
10h 37m
Waxing Crescent, 9% of the Moon is Illuminated
Oct 29
Waxing Crescent
Nov 2
First Quarter
Nov 10
Full
Nov 18
Last Quarter
Nov 25
New

Hourly Weather History & Observations

Time (EEST) Temp. Windchill Dew Point Humidity Pressure Visibility Wind Dir Wind Speed Gust Speed Precip Events Conditions
12:50 AM 33.8 °F - 30.2 °F 87% 30.18 in - NW 2.3 mph - N/A   Clear
3:00 AM 31 °F - 28 °F 84%  in 6 mi West 1.2 mph - -  
3:50 AM 33.8 °F 29.6 °F 28.4 °F 81% 30.18 in - East 4.6 mph - N/A   Clear
4:50 AM 32.0 °F - 28.4 °F 87% 30.18 in - Calm Calm - N/A   Clear
5:50 AM 32.0 °F - 28.4 °F 87% 30.18 in 6.2 mi Calm Calm - N/A   Partly Cloudy
6:50 AM 33.8 °F - 30.2 °F 87% 30.18 in 6.2 mi Variable 1.2 mph - N/A   Scattered Clouds
7:50 AM 35.6 °F - 30.2 °F 81% 30.18 in 6.2 mi Calm Calm - N/A   Scattered Clouds
8:50 AM 42.8 °F - 32.0 °F 66% 30.18 in 6.2 mi ESE 2.3 mph - N/A   Scattered Clouds
9:00 AM 42 °F - 32 °F 58%  in 6 mi ESE 2.3 mph - -   Partly Cloudy
9:50 AM 46.4 °F - 30.2 °F 53% 30.18 in 6.2 mi Variable 2.3 mph - N/A   Scattered Clouds
10:50 AM 50.0 °F - 30.2 °F 47% 30.15 in 6.2 mi SE 4.6 mph - N/A   Scattered Clouds
11:50 AM 51.8 °F - 26.6 °F 38% 30.15 in 6.2 mi South 5.8 mph - N/A   Scattered Clouds
12:50 PM 53.6 °F - 26.6 °F 35% 30.12 in 6.2 mi Variable 3.5 mph - N/A   Scattered Clouds
1:50 PM 55.4 °F - 24.8 °F 31% 30.09 in 6.2 mi WSW 8.1 mph - N/A   Scattered Clouds
2:50 PM 57.2 °F - 24.8 °F 29% 30.06 in 6.2 mi SW 4.6 mph - N/A   Scattered Clouds
3:00 PM 56 °F - 25 °F 18%  in 12 mi SW 4.6 mph - -   Partly Cloudy
3:50 PM 55.4 °F - 24.8 °F 31% 30.06 in 6.2 mi Variable 2.3 mph - N/A   Scattered Clouds
4:50 PM 53.6 °F - 24.8 °F 33% 30.06 in 6.2 mi South 4.6 mph - N/A   Scattered Clouds
5:50 PM 48.2 °F - 24.8 °F 40% 30.06 in 6.2 mi ENE 4.6 mph - N/A   Scattered Clouds
6:50 PM 51.8 °F - 26.6 °F 38% 30.06 in 6.2 mi NE 9.2 mph - N/A   Scattered Clouds
7:50 PM 48.2 °F - 28.4 °F 46% 30.06 in 6.2 mi West 8.1 mph - N/A   Scattered Clouds
8:50 PM 46.4 °F 42.9 °F 28.4 °F 50% 30.09 in 6.2 mi West 6.9 mph - N/A   Scattered Clouds
9:00 PM 46 °F - 29 °F 39%  in 12 mi West 6.9 mph - -   Partly Cloudy
9:50 PM 42.8 °F - 30.2 °F 61% 30.09 in 6.2 mi Variable 1.2 mph - N/A   Scattered Clouds
10:50 PM 42.8 °F 38.6 °F 30.2 °F 61% 30.09 in 6.2 mi West 6.9 mph - N/A   Scattered Clouds
11:50 PM 39.2 °F - 30.2 °F 70% 30.09 in 6.2 mi Calm Calm - N/A   Scattered Clouds